Flag for Mongolia Weather past 2 weeks in Ulaanbaatar, Mongolia

Now
-22 °F

Clear.


Feels Like: -33 °F
Forecast: -22 / 13 °F
Wind: 3 mph from South

Location: Ulan-Bator

Current Time: Jan 31, 2015 at 3:29:11 AM

Latest Report: Jan 31, 2015 at 3:00 AM


Visibility: 4 mi

Pressure: 30.39 "Hg

Humidity: 75%

Dew point: -27 °F

Location of UlaanbaatarLocation

Historic Weather in Ulaanbaatar — Graph

°F

Ulaanbaatar temperature yesterday

Maximum temperature yesterday: 5 °F (at 3:30 PM)
Minimum temperature yesterday: -27 °F (at 2:30 AM)
Average temperature yesterday: -15 °F

Past Weeks' High & Low Weather Summary

 TemperatureHumidityPressure
High27 °F (Jan 22, 4:30 PM)86% (Jan 22, 7:00 PM)30.57 "Hg (Jan 22, 7:00 PM)
Low-29 °F (Jan 26, 8:30 AM)39% (Jan 22, 2:30 PM)29.59 "Hg (Jan 22, 10:00 AM)
Average-4 °F70%30.10 "Hg
* Reported Jan 16 2:00 AM — Jan 31 2:00 AM, Ulaanbaatar, Weather by CustomWeather, © 2014

Note: Actual official high and low records may vary slightly from our data, if they occured in-between our weather recording intervals... More about our weather records

Advertising

Ulaanbaatar weather history for previous 24 hours

 ConditionsComfort  
Time TempWeatherWind HumidityBarometerVisibility
2:00 AM
Jan 31
-20 °FClear.No wind68%30.39 "Hg5 mi
1:00 AM-20 °FClear.1 mph75%30.42 "Hg10 mi
12:00 AM-20 °FClear.1 mph75%30.42 "Hg10 mi
11:30 PM
Jan 30
-20 °FClear.1 mph68%30.42 "Hg10 mi
11:00 PM-20 °FClear.1 mph75%30.42 "Hg10 mi
10:30 PM-20 °FClear.3 mph75%30.45 "Hg10 mi
10:00 PM-18 °FClear.3 mph75%30.42 "Hg10 mi
9:30 PM-15 °FClear.3 mph69%30.42 "Hg10 mi
9:00 PM-15 °FClear.1 mph69%30.42 "Hg10 mi
8:30 PM-17 °FClear.3 mph76%30.42 "Hg10 mi
8:00 PM-15 °FClear.6 mph69%30.42 "Hg10 mi
7:30 PM-9 °FClear.3 mph64%30.42 "Hg10 mi
7:00 PM-8 °FClear.1 mph70%30.42 "Hg10 mi
6:30 PM-6 °FClear.1 mph64%30.39 "Hg5 mi
6:00 PM-6 °FClear.1 mph64%30.39 "Hg4 mi
5:30 PM3 °FClear.1 mph55%30.39 "Hg3 mi
5:00 PM3 °FClear.1 mph55%30.39 "Hg3 mi
4:30 PM5 °FClear.No wind51%30.39 "Hg3 mi
4:00 PM5 °FClear.1 mph51%30.39 "Hg3 mi
3:30 PM5 °FClear.1 mph51%30.39 "Hg3 mi
3:00 PM3 °FClear.1 mph50%30.39 "Hg3 mi
2:30 PM3 °FClear.1 mph50%30.39 "Hg3 mi
2:00 PM0 °FClear.1 mph54%30.42 "Hg3 mi
1:30 PM0 °FClear.1 mph54%30.42 "Hg2 mi
1:00 PM-2 °FClear.1 mph54%30.42 "Hg2 mi
12:30 PM-4 °FClear.No wind59%30.42 "Hg2 mi
11:30 AM-9 °FClear.1 mph64%30.45 "Hg2 mi
11:00 AM-11 °FClear.3 mph70%30.45 "Hg2 mi
10:30 AM-15 °FClear.1 mph69%30.45 "Hg1 mi
10:00 AM-17 °FClear.No wind69%30.45 "Hg2 mi
9:30 AM-22 °FClear.No wind68%30.42 "Hg2 mi
9:00 AM-22 °FClear.1 mph68%30.42 "Hg2 mi
8:30 AM-24 °FClear.No wind68%30.39 "Hg2 mi
8:00 AM-27 °FClear.1 mph67%30.39 "Hg4 mi
7:30 AM-27 °FClear.1 mph67%30.39 "Hg4 mi
7:00 AM-27 °FClear.No wind67%30.39 "Hg4 mi
6:30 AM-26 °FClear.1 mph75%30.36 "Hg4 mi
6:00 AM-26 °FClear.3 mph75%30.36 "Hg4 mi
5:30 AM-24 °FClear.1 mph68%30.36 "Hg4 mi
5:00 AM-26 °FClear.1 mph67%30.36 "Hg4 mi
4:30 AM-26 °FClear.1 mph67%30.36 "Hg5 mi
4:00 AM-26 °FClear.3 mph67%30.36 "Hg10 mi
3:30 AM-24 °FClear.1 mph68%30.36 "Hg10 mi
3:00 AM-24 °FClear.1 mph68%30.36 "Hg10 mi
Weather by CustomWeather, © 2014

See weather overviewHow to use our weather pages